Regional Weather Roundup
Issued by NWS Charleston, WV

Home | Current Version | Previous Version | Graphics & Text | Print | Product List | Glossary On
Versions: 1 2 3 4 5 6 7 8 9 10 11 12 13 14 15 16 17 18 19 20 21 22 23 24 25 26 27
000
ASUS41 KRLX 261110
RWRRLX
West Virginia Regional Weather Roundup
National Weather Service Charleston WV
700 AM EDT THU APR 26 2018

Note: "fair" indicates few or no clouds below 12,000 feet with no
significant weather and/or obstructions to visibility.

WVZ003-261200-
Northern Panhandle of West Virginia

CITY           SKY/WX    TMP DP  RH WIND       PRES   REMARKS
WHEELING       MOCLDY    37  34  89 CALM      29.93R
$$

WVZ009-261200-
Northwest West Virginia

CITY           SKY/WX    TMP DP  RH WIND       PRES   REMARKS
PARKERSBURG    FOG       39  39 100 CALM      29.96R VSB<1/4
$$

WVZ006-261200-
Western West Virginia

CITY           SKY/WX    TMP DP  RH WIND       PRES   REMARKS
HUNTINGTON     FOG       44  42  93 NE3       29.88S VSB<1/4
$$

WVZ015-261200-
West Central West Virginia

CITY           SKY/WX    TMP DP  RH WIND       PRES   REMARKS
CHARLESTON     FOG       46  46 100 CALM      29.90R VSB 1/4
$$

WVZ022-031-261200-
North Central West Virginia

CITY           SKY/WX    TMP DP  RH WIND       PRES   REMARKS
CLARKSBURG     FAIR      39  37  92 CALM      29.92R FOG
MORGANTOWN     CLOUDY    39  38  96 N6        29.93S FOG
$$

WVZ025-035-042-045-261200-
Southern West Virginia

CITY           SKY/WX    TMP DP  RH WIND       PRES   REMARKS
BECKLEY        FOG       38  38 100 CALM      29.89S VSB<1/4
LOGAN          FOG       48  48 100 CALM      29.90S VSB<1/4
BLUEFIELD      FOG       42  40  92 CALM      29.91S VSB 1/4
LEWISBURG      FAIR      38  37  96 N7        29.90S
$$

WVZ047-261200-
Northern Mountains of West Virginia

CITY           SKY/WX    TMP DP  RH WIND       PRES   REMARKS
ELKINS         FOG       37  36  96 CALM      29.92R VSB 3/4
$$

WVZ052-261200-
Eastern Panhandle of West Virginia

CITY           SKY/WX    TMP DP  RH WIND       PRES   REMARKS
MARTINSBURG    FAIR      47  36  65 CALM      29.84R
PETERSBURG     FAIR      42  37  83 CALM      29.89R HAZE
$$




USA.gov is the U.S. government's official web portal to all federal, state and local government web resources and services.